STARLINK-1219, 45210

Orbit data source: Space-Track

STARLINK-1219, 45210 is a payload satellite owned by SpaceX/Seattle (US) in LEO that was launched on Mon, 17 Feb 2020 UTC via an FALCON 9 launch vehicle from the Air Force Eastern Test Range (AFETR). Payload-class satellites include a variety of spacecraft equipped with specific instruments for various scientific and technological missions. These include communications satellites like Starlink; space stations such as the ISS; scientific satellites like the Hubble; Earth observation satellites from companies like Planet Labs, Umbra, and HawkEye 360; GPS; miniature CubeSats for education and research; and military/defense satellites.

Not visible in the next 10 days
Identifier
45210, 2020-012AJ
Orbit
LEO
Last TLE update
11 hours ago
Origin
Manufacturer
SpaceX/Seattle
Mission
Partially operational Commercial Communications
Bus & Motor
STARLINK, Unknown motor
Mass
260 kg wet, ~248 kg dry
Launch date (UTC)
2020-02-17 (5 years ago)
Launch vehicle
FALCON 9
Launch site
Air Force Eastern Test Range (AFETR)
Object type
Payload
Rocket body
Debris
Shape & HBR
Box + 1 Pan, 8.86 m
Radar Cross Section
13.562 m², Large (>1 m²)

Expand to show TLE details & history

TLE from 11 hours ago
0 STARLINK-1219
1 45210U 20012AJ  25181.91668981  .00184214  00000-0  11721-2 0  9996
2 45210  53.0456  37.2888 0008029 121.1030 287.4283 15.75352233  5960
Epoch: 2025-06-30T22:00Z
TLE epoch observation values (Epoch: 2025-06-30T22:00:01.999Z)
Latitude
36.84717°
Longitude
-177.84234°
Altitude
344.939 km
Speed
7.708 km/s
True Right ascension
04h 45m 32s
True Declination
36° 40' 20"
Sunlit
Object was in daylight at epoch
Visualization orbit readout
Latitude
-12.62404°
Longitude
-24.63758°
Altitude
344.953 km
Speed
7.703 km/s
Apparent Right ascension
12h 30m 12s
Apparent Declination
-34° 13' 24"
Sunlit
Object is in full shadow
Visualization observer readout
Local Sidereal Time
20:55:03
Azimuth
259.976° W
Elevation
-47.353°
Doppler factor
1
Orbital elements
Apogee altitude
349.306 km
Perigee altitude
338.512 km
Semi-major axis
6,722.046 km
Eccentricity
0.0008
Inclination
53.0456°
RAAN
37.2888°
Arg. of periapsis
121.103°
True anomaly
Unknown
Mean anomaly
287.4283°
Eccentric anomaly
Unknown
Mean motion
3.93814 °/min
Orbital period
91.41 mins
BSTAR
0.0011721
Loading maneuver chart data...
Loading SW <> Apogee altitude chart data...

STARLINK-1219 Visibility

Observer location: undefined°, undefined°

STARLINK-1219 is likely not visible in the next few days
Span
Click to sort rows by Start time (UTC) header in descending order
Start Az.
Max El. time (UTC)
Max El. Az.
Max El.
End time (UTC)
End Az.
|